This demonstration page uses our WeatherBlox Daily Observations layout. Learn more.

Left ArrowRight Arrow

34.16533, -84.80231

Hourly Observations for August 10, 2018

Temp ( °F °C ) Dew Point ( °F °C ) Humidity (%) Winds ( mph kmh ) Pressure ( in mb ) Visibility ( mi km ) Precip ( " mm )
12:28 am 00:28 Mostly Clear 70 21.1 70 21.1 100 100 Calm 30.03 1017 10 16 0.00 0.00
12:53 am 00:53 Mostly Cloudy with Mist and Fog 69 20.6 69 20.6 100 100 Calm 30.02 1017 6 10 0.00 0.00
1:14 am 01:14 Partly Cloudy 70 21.1 70 21.1 100 100 Calm 30.03 1017 10 16 0.00 0.00
1:53 am 01:53 Partly Cloudy 69 20.6 69 20.6 100 100 Calm 30.02 1017 10 16 0.00 0.00
2:02 am 02:02 Mostly Cloudy 68 20 68 20 100 100 Calm 30.03 1017 9 14 0.00 0.00
2:10 am 02:10 Mostly Cloudy with Mist and Fog 68 20 68 20 100 100 Calm 30.03 1017 2 2 0.00 0.00
2:19 am 02:19 Mostly Cloudy with Mist and Fog 68 20 68 20 100 100 Calm 30.03 1017 1 1 0.00 0.00
2:34 am 02:34 Mostly Cloudy with Fog 69 20.6 69 20.6 100 100 Calm 30.03 1017 0 0 0.00 0.00
2:53 am 02:53 Mostly Cloudy with Fog 70 21.1 70 21.1 100 100 Calm 30.01 1016 1 1 0.00 0.00
3:00 am 03:00 Cloudy with Mist and Fog 70 21.1 70 21.1 100 100 Calm 30.03 1017 3 4 0.00 0.00
3:07 am 03:07 Cloudy 70 21.1 70 21.1 100 100 Calm 30.03 1017 8 13 0.00 0.00
3:18 am 03:18 Cloudy 70 21.1 70 21.1 100 100 Calm 30.03 1017 9 14 0.00 0.00
3:28 am 03:28 Cloudy 70 21.1 70 21.1 100 100 SSW 5 7 30.03 1017 10 16 0.00 0.00
3:41 am 03:41 Cloudy 70 21.1 70 21.1 100 100 VRB 3 6 30.03 1017 10 16 0.00 0.00
3:53 am 03:53 Cloudy 70 21.1 70 21.1 100 100 Calm 30.01 1016 9 14 0.00 0.00
4:11 am 04:11 Cloudy 70 21.1 70 21.1 100 100 Calm 30.03 1017 10 16 0.00 0.00
4:38 am 04:38 Cloudy 70 21.1 70 21.1 100 100 Calm 30.03 1017 10 16 0.00 0.00
4:53 am 04:53 Cloudy 70 21.1 70 21.1 100 100 Calm 30.01 1016 10 16 0.00 0.00
5:53 am 05:53 Cloudy 71 21.7 71 21.7 100 100 Calm 30.00 1016 9 14 0.00 0.00
6:07 am 06:07 Cloudy 71 21.7 71 21.7 100 100 Calm 30.03 1017 9 14 0.00 0.00
6:23 am 06:23 Cloudy 71 21.7 71 21.7 100 100 Calm 30.03 1017 8 13 0.00 0.00
6:31 am 06:31 Cloudy 71 21.7 71 21.7 100 100 Calm 30.03 1017 8 13 0.00 0.00
6:45 am 06:45 Cloudy 71 21.7 71 21.7 100 100 Calm 30.03 1017 8 13 0.00 0.00
6:53 am 06:53 Cloudy 71 21.7 71 21.7 100 100 Calm 30.01 1016 8 13 0.00 0.00
7:05 am 07:05 Cloudy 71 21.7 71 21.7 100 100 Calm 30.03 1017 8 13 0.00 0.00
7:12 am 07:12 Cloudy 71 21.7 71 21.7 100 100 Calm 30.03 1017 7 11 0.00 0.00
7:25 am 07:25 Cloudy 71 21.7 71 21.7 100 100 Calm 30.03 1017 7 11 0.00 0.00
7:48 am 07:48 Cloudy with Mist and Fog 72 22 72 22 100 100 Calm 30.03 1017 6 10 0.00 0.00
7:53 am 07:53 Cloudy 72 22.2 72 22.2 100 100 Calm 30.02 1017 7 11 0.00 0.00
8:53 am 08:53 Cloudy 73 22.8 72 22.2 96 96 Calm 30.03 1017 9 14 0.00 0.00
9:15 am 09:15 Cloudy 74 23.3 72 22.2 94 94 Calm 30.03 1017 8 13 0.00 0.00
9:21 am 09:21 Cloudy 74 23.3 72 22.2 94 94 Calm 30.03 1017 9 14 0.00 0.00
9:24 am 09:24 Cloudy 74 23.3 72 22.2 94 94 Calm 30.03 1017 9 14 0.00 0.00
9:37 am 09:37 Cloudy 74 23.3 72 22.2 94 94 Calm 30.03 1017 9 14 0.00 0.00
9:44 am 09:44 Cloudy 75 23.9 72 22.2 90 90 Calm 30.03 1017 9 14 0.00 0.00
9:53 am 09:53 Cloudy 75 23.9 72 22.2 90 90 N 3 6 30.03 1017 9 14 0.00 0.00
10:14 am 10:14 Cloudy 76 24.4 72 22.2 88 88 Calm 30.03 1017 9 14 0.00 0.00
10:37 am 10:37 Cloudy 76 24.4 72 22.2 88 88 Calm 30.03 1017 10 16 0.00 0.00
10:53 am 10:53 Cloudy 78 25.6 72 22.2 82 82 Calm 30.03 1017 10 16 0.00 0.00
11:53 am 11:53 Cloudy 79 26.1 72 22.2 79 79 Calm 30.02 1017 10 16 0.00 0.00
12:50 pm 12:50 Mostly Cloudy 82 28 73 23 74 74 VRB 5 7 30.00 1016 10 16 0.00 0.00
12:53 pm 12:53 Mostly Cloudy 82 27.8 73 22.8 74 74 VRB 3 6 29.99 1016 10 16 0.00 0.00
1:10 pm 13:10 Mostly Cloudy 82 27.8 72 22.2 72 72 VRB 5 7 30.00 1016 10 16 0.00 0.00
1:20 pm 13:20 Mostly Cloudy 84 28.9 73 22.8 70 70 VRB 3 6 30.00 1016 10 16 0.00 0.00
1:53 pm 13:53 Partly Cloudy 84 28.9 72 22.2 67 67 VRB 3 6 29.96 1015 10 16 0.00 0.00
2:53 pm 14:53 Mostly Cloudy 86 30 72 22.2 63 63 VRB 5 7 29.94 1014 10 16 0.00 0.00
3:53 pm 15:53 Sunny 86 30 70 21.1 59 59 VRB 5 7 29.91 1013 10 16 0.00 0.00
4:53 pm 16:53 Mostly Sunny 87 30.6 70 21.1 57 57 VRB 3 6 29.89 1012 10 16 0.00 0.00
5:53 pm 17:53 Partly Cloudy 87 30.6 70 21.1 57 57 VRB 3 6 29.89 1012 10 16 0.00 0.00
6:53 pm 18:53 Sunny 85 29.4 70 21.1 61 61 Calm 29.89 1012 10 16 0.00 0.00
7:53 pm 19:53 Sunny 82 27.8 75 23.9 79 79 Calm 29.89 1012 10 16 0.00 0.00
8:53 pm 20:53 Clear 77 25 75 23.9 94 94 Calm 29.90 1012 10 16 0.00 0.00
9:53 pm 21:53 Clear 76 24.4 74 23.3 94 94 Calm 29.93 1014 10 16 0.00 0.00
10:53 pm 22:53 Clear 74 23.3 72 22.2 94 94 Calm 29.94 1014 10 16 0.00 0.00
11:53 pm 23:53 Clear 74 23.3 71 21.7 91 91 Calm 29.94 1014 10 16 0.00 0.00

Powered by AerisWeather